Location: Kershaw
(34.5481°N, 80.5823°W)
Time: 15:59:50
(UTC+00:00)

Courier 1B - Visible Passes

Search period start: 26 September 2022 00:00
Search period end: 06 October 2022 00:00
Orbit: 962 x 1209 km, 28.3° (Epoch: 26 September)

Date Brightness Start Highest point End Pass type
(mag) Time Alt. Az. Time Alt. Az. Time Alt. Az.
26 Sep 8.1 01:32:31 10° W 01:38:10 44° SSW 01:38:10 44° SSW visible
27 Sep 8.0 00:38:43 10° WSW 00:44:59 48° S 00:47:41 31° SE visible
27 Sep 9.6 02:32:58 10° WSW 02:34:35 17° WSW 02:34:35 17° WSW visible
27 Sep 8.0 23:44:54 10° WSW 23:51:19 50° S 23:57:13 11° ESE visible
28 Sep 8.5 01:39:02 10° W 01:44:07 34° SSW 01:44:07 34° SSW visible
29 Sep 8.2 00:45:08 10° W 00:51:15 41° SSW 00:53:40 30° SSE visible
29 Sep 9.9 02:40:03 10° WSW 02:40:33 12° WSW 02:40:33 12° WSW visible
29 Sep 8.2 23:51:15 10° W 23:57:37 46° S 00:03:15 12° ESE visible
30 Sep 9.0 01:45:49 10° WSW 01:50:09 25° SW 01:50:09 25° SW visible
01 Oct 8.7 00:51:44 10° WSW 00:57:28 31° SSW 00:59:46 25° SSE visible
01 Oct 8.6 23:57:42 10° W 00:03:51 37° SSW 00:09:26 11° SE visible
02 Oct 9.5 01:53:16 10° WSW 01:56:20 16° SW 01:56:20 16° SW visible
03 Oct 9.2 00:58:42 10° WSW 01:03:33 21° SSW 01:06:04 17° S visible
04 Oct 9.1 00:04:23 10° WSW 00:09:59 27° SSW 00:15:22 10° SSE visible
05 Oct 9.7 01:06:46 10° SW 01:09:33 13° SSW 01:12:19 10° S visible
